Regional Weather Roundup
Issued by NWS

Home | Current Version | Previous Version | Text Only | Print | Product List | Glossary On
Versions: 1 2 3 4 5 6 7 8 9 10 11 12 13 14 15 16 17 18 19 20 21 22 23 24 25 26 27 28
000
ASUS45 KBOI 221710
RWRID

IDAHO REGIONAL WEATHER ROUNDUP
NATIONAL WEATHER SERVICE BOISE ID
1000 AM MST SUN JAN 22 2017

NOTE: "FAIR" INDICATES FEW OR NO CLOUDS BELOW 12000 FEET
WITH NO SIGNIFICANT WEATHER AND/OR OBSTRUCTIONS TO VISIBILITY

IDZ012-014-221800-
SOUTHWEST IDAHO


CITY           SKY/WX    TMP DP  RH WIND       PRES   REMARKS
BOISE          CLOUDY    39  26  59 SE20      29.69R WCI  29
CALDWELL       CLOUDY    37  27  67 E20       29.68F WCI  27
MOUNTAIN HOME  CLOUDY    36  30  80 E26G33    29.69F WCI  23
$$

IDZ016-017-221800-
SOUTHCENTRAL IDAHO


CITY           SKY/WX    TMP DP  RH WIND       PRES   REMARKS
BURLEY         CLOUDY    34  21  59 VRB3      29.80S
JEROME         CLOUDY    35  21  56 SE12G20   29.78F WCI  27
TWIN FALLS     CLOUDY    35  20  54 S23G38    29.73F WCI  23
$$

IDZ019>023-221800-
SOUTHEAST IDAHO


CITY           SKY/WX    TMP DP  RH WIND       PRES   REMARKS
IDAHO FALLS    CLOUDY    21  18  88 N7        29.90F WCI  12
POCATELLO      MOSUNNY   36  21  54 S20       29.86F WCI  25
REXBURG        CLOUDY    24  21  88 NE7       29.90F WCI  16
$$

IDZ006-010-011-018-031-032-221800-
CENTRAL IDAHO MOUNTAINS


CITY           SKY/WX    TMP DP  RH WIND       PRES   REMARKS
MCCALL         CLOUDY    21  18  88 N3        29.63F
HAILEY         CLOUDY    25  21  86 CALM      29.83S
STANLEY          N/A     27  18  69 SE9       29.70F WCI  18
SALMON         SUNNY     12  10  92 CALM      29.84F
CHALLIS        PTSUNNY    8   6  92 SE7       29.82R WCI  -3
$$

IDZ002-004-006-007-026-221800-
NORTHERN IDAHO


CITY           SKY/WX    TMP DP  RH WIND       PRES   REMARKS
LEWISTON       CLOUDY    33  28  81 S7        29.66S WCI  27
LOWELL           N/A     31  28  89 CALM      29.77F
COEUR D`ALENE  CLOUDY    32  31  96 N18       29.67F WCI  20
MULLAN PASS    FOG       24  21  88 SE9       29.63F VSB 1/2 WCI  14
$$




USA.gov is the U.S. government's official web portal to all federal, state and local government web resources and services.